Location: Les Jeannots
(43.2262°N, 5.5774°E)
Time: 19:05:38
(UTC+00:00)

Cosmos 1151 Rocket - Pass Details

Date: 05 July 2020
Orbit: 591 x 617 km, 82.5° (Epoch: 11 August)

Event Time Altitude Azimuth Distance (km) Brightness Sun altitude
Rises 23:33:44 0° 347° (NNW) 2,876 7.8 -24.1°
Reaches altitude 10° 23:36:00 10° 342° (NNW) 1,963 6.6 -24.1°
Enters shadow 23:40:04 53° 275° (W) 745 3.4 -24.1°
